Regional Weather Roundup
Issued by NWS

Home | Current Version | Previous Version | Text Only | Print | Product List | Glossary On
Versions: 1 2 3 4 5 6 7 8 9 10 11 12 13 14 15 16 17 18 19 20 21 22 23 24 25 26 27 28 29 30 31 32 33 34 35 36 37 38 39 40 41 42 43 44 45 46 47 48 49 50
000
ASUS43 KMKX 261500
RWRWI

WISCONSIN REGIONAL WEATHER ROUNDUP
NATIONAL WEATHER SERVICE MILWAUKEE/SULLIVAN WI
1000 AM CDT THU MAY 26 2016

NOTE: "FAIR" INDICATES FEW OR NO CLOUDS BELOW 12,000 FEET WITH NO
SIGNIFICANT WEATHER AND/OR OBSTRUCTIONS TO VISIBILITY.

WIZ001-002-006>008-014>016-023>028-261600-
NORTHWEST WISCONSIN

CITY           SKY/WX    TMP DP  RH WIND       PRES   REMARKS
SUPERIOR ARPT  FOG       44  44 100 N5        29.82F VSB 1
ASHLAND        CLOUDY    51  51 100 W5        29.81F
HAYWARD        CLOUDY    62  60  93 S6        29.81S
SIREN          CLOUDY    62  61  98 CALM      29.80F
CUMBERLAND     CLOUDY    61  59  94 CALM      29.82R
RICE LAKE      CLOUDY    63  62  96 CALM      29.82F
CHETEK         CLOUDY    64  64  97 E6        29.80S
LADYSMITH      CLOUDY    63  62  97 CALM      29.84F
EAU CLAIRE     NOT AVBL
MENOMONIE      PTSUNNY   65  65  99 SW9       29.83R
NEW RICHMOND   MOSUNNY   66  56  71 S3        29.82F
OSCEOLA        PTSUNNY   66  62  87 SE5       29.83F
$$

WIZ003>005-009-010-017-018-261600-
NORTH CENTRAL WISCONSIN

CITY           SKY/WX    TMP DP  RH WIND       PRES   REMARKS
MANITOWISH WTR NOT AVBL
ARBOR VITAE    CLOUDY    63  61  95 S3        29.81F FOG
WOODRUFF       CLOUDY    63  61  95 S3        29.81F FOG
RHINELANDER    HVY RAIN  63  61  93 SW9       29.83S VSB 1
EAGLE RIVER      N/A     63  62  96 CALM      29.81F
LAND O LAKES   CLOUDY    64  61  89 SE3       29.83F
PHILLIPS       LGT RAIN  62  62 100 W6        29.81S
TOMAHAWK       HVY RAIN  61  60  96 SW5       29.83F
MEDFORD        RAIN      60  60 100 CALM      29.83F
MERRILL        RAIN      62  62 100 CALM      29.84F
$$

WIZ029-030-035-036-043>047-261600-
CENTRAL WISCONSIN

CITY           SKY/WX    TMP DP  RH WIND       PRES   REMARKS
WAUSAU         CLOUDY    65 N/A N/A NW8       29.77F
MOSINEE        MOSUNNY   63  63 100 NW9       29.80S
MARSHFIELD     CLOUDY    66  60  81 N6        29.78F
STEVENS POINT  LGT RAIN  60  60 100 NE8       29.78F
WAUPACA        MOSUNNY   65  64  97 N8        29.78F
WAUTOMA        NOT AVBL
WISC RAPIDS    CLOUDY    64  60  87 CALM      29.81R
CAMP DOUGLAS   NOT AVBL
$$

WIZ011>013-019>022-031-037>040-048>050-261600-
NORTHEAST WISCONSIN

CITY           SKY/WX    TMP DP  RH WIND       PRES   REMARKS
ANTIGO         DRIZZLE   61  61 100 W6        29.83F
SHAWANO        CLOUDY    65  64  95 S3        29.85S FOG
OCONTO         CLOUDY    62  62 100 S3        29.85S VSB 1
STURGEON BAY   NOT AVBL
GREEN BAY      MOSUNNY   69  65  86 S10       29.84F
MANITOWOC      CLOUDY    63  61  94 E3        29.88S FOG
APPLETON       PTSUNNY   64  64 100 CALM      29.81F
CLINTONVILLE   RAIN      63  63 100 N5        29.81F
OSHKOSH        CLOUDY    68  63  84 E8        29.81F
$$

WIZ032>034-041-042-053>061-261600-
SOUTHWEST WISCONSIN

CITY           SKY/WX    TMP DP  RH WIND       PRES   REMARKS
LA CROSSE      MOSUNNY   68  61  78 S6        29.83R
SPARTA         PTSUNNY   64  61  91 W5        29.85R
VIROQUA        PTSUNNY   65  62  90 SW5       29.85R
BOSCOBEL       MOSUNNY   71  62  73 S6        29.85R
PRAIRIE DU CHI CLOUDY    67  60  78 CALM      29.85R
PLATTEVILLE    SUNNY     69  61  75 SW6       29.88S
$$

WIZ056-057-062-063-064-067-068-261600-
SOUTH CENTRAL WISCONSIN

CITY           SKY/WX    TMP DP  RH WIND       PRES   REMARKS
REEDSBURG      CLOUDY    67  62  86 SW6       29.84R
BARABOO/DELLS  CLOUDY    68  61  79 SW5       29.84R
LONE ROCK      NOT AVBL
MINERAL POINT  MOSUNNY   72  63  73 S7        29.88R
MADISON        PTSUNNY   69  62  78 S15       29.86R
MIDDLETON      PTSUNNY   71  62  72 S7        29.87R
WATERTOWN      PTSUNNY   67  67 100 S6        29.86F
MONROE         CLOUDY    66  61  82 S7        29.90R
JANESVILLE     MOSUNNY   70  63  78 SW5       29.90R
$$

WIZ051-052-058>065-066-070>072-261600-
SOUTHEAST WISCONSIN

CITY           SKY/WX    TMP DP  RH WIND       PRES   REMARKS
MILWAUKEE      LGT RAIN  69  66  90 CALM      29.87F
WAUKESHA       SUNNY     64  63  94 CALM      29.90F
MILWAUKEE/TIMM MOSUNNY   70  64  83 CALM      29.88F
RACINE         LGT RAIN  71  67  87 E3        29.89F
BURLINGTON     NOT AVBL
KENOSHA        PTSUNNY   71  63  75 CALM      29.89F
FOND DU LAC    CLOUDY    69  65  86 SE8       29.83F
SHEBOYGAN      RAIN      68  64  87 NW3       29.85F FOG
WEST BEND      CLOUDY    64  61  88 SW5       29.86F
JUNEAU         CLOUDY    66  64  93 SE6       29.86F
$$

LSZ147-162-261600-
LAKE SUPERIOR

STATION/POSITION TIME  TEMP    WIND        PRES    WAVE
                       AIR SEA DIR/SP/G            HT/PER
                 (UTC) (F)     (DEG/KT/KT) (MB)    (FT/S)
W MID LAKE BUOY  1350   41 38   50/  8/ 10 1010.1F   1/ 3
DEVILS ISLAND    1400   43     100/  8/  9 1010.2R
SAXON HARBOR     1420   48      30/  2/ 13 1008.1F
$$

LMZ867-665-643>646-261600-
LAKE MICHIGAN

STATION/POSITION TIME  TEMP    WIND        PRES    WAVE
                       AIR SEA DIR/SP/G            HT/PER
                 (UTC) (F)     (DEG/KT/KT) (MB)    (FT/S)
CHAMBERS ISLAND  1400   61     150/  3/  7 1011.2F
N MID LAKE BUOY  1350   48 45  200/ 14/ 16 1011.0S   1/ 3
NORTHPORT PIER   1400   62     160/  7/  9 1010.8F
SISTER BAY       1305   58     170/  9/ 11   N/A
ALGOMA LAKESHORE 1402             CALM       N/A
KEWAUNEE LAKESHO 1400   50     150/  5/  5 1010.9R
SHEBOYGAN LAKESH 1400   55     180/ 19/ 20 1012.8R
PORT WASHINGTON  1420   56     150/  3/  8 1012.9S
S MID LAKE BUOY  1350   54 49  170/ 14/ 14 1012.9R   1/ 3
KENOSHA   LAKESH 1400   69     250/  5/  9 1013.2R
$$

TC  - TEMPERATURE IN CELSIUS
VSB - VISIBILITY IN STATUTE MILES
WCI - WIND CHILL INDEX
HX  - HEAT INDEX





USA.gov is the U.S. government's official web portal to all federal, state and local government web resources and services.